PHENX84 NZNE-NZKK

Flight info

Callsign PHENX84
Flight time 0h 55m
Altitude 2000
Route MHED1 DCT BHEAD DCT OPON1 DCT PQURY
Aircraft C172/L-SFG/C

Departure

Time 2026-04-11 11:57
Airport North Shore Aerodrome (NZNE)

Arrival

Time 2026-04-11 12:53
Airport Kerikeri Airport (NZKK)
Time Latitude Longitude Altitude Speed Heading
2026-04-11 11:53 -36.65614 174.65554 193 ft 7 kts 281°
2026-04-11 11:53 -36.65591 174.65440 193 ft 19 kts 283°
2026-04-11 11:53 -36.65577 174.65372 194 ft 2 kts 279°
2026-04-11 11:53 -36.65578 174.65368 193 ft 0 kts 258°
2026-04-11 11:54 -36.65582 174.65356 193 ft 3 kts 243°
2026-04-11 11:54 -36.65574 174.65358 202 ft 3 kts 107°
2026-04-11 11:55 -36.65575 174.65364 203 ft 9 kts 104°
2026-04-11 11:55 -36.65642 174.65671 196 ft 62 kts 105°
2026-04-11 11:55 -36.65755 174.66291 298 ft 81 kts 101°
2026-04-11 11:55 -36.65798 174.67006 566 ft 76 kts 86°
2026-04-11 11:56 -36.65785 174.67379 512 ft 99 kts 90°
2026-04-11 11:57 -36.65777 174.67847 732 ft 80 kts 85°
2026-04-11 11:57 -36.65601 174.68581 839 ft 101 kts 46°
2026-04-11 11:57 -36.65190 174.69119 1212 ft 86 kts 61°
2026-04-11 11:58 -36.64589 174.69548 1168 ft 112 kts 47°
2026-04-11 11:58 -36.63829 174.69943 1067 ft 137 kts 23°
2026-04-11 11:58 -36.62823 174.69699 939 ft 144 kts 13°
2026-04-11 11:58 -36.61887 174.69796 930 ft 129 kts 26°
2026-04-11 11:59 -36.60961 174.69839 851 ft 131 kts 15°
2026-04-11 11:59 -36.60052 174.69810 833 ft 126 kts 13°
2026-04-11 11:59 -36.59249 174.69763 981 ft 111 kts 18°
2026-04-11 11:59 -36.58478 174.69702 1079 ft 102 kts 35°
2026-04-11 12:00 -36.57817 174.69915 1234 ft 99 kts 39°
2026-04-11 12:00 -36.57142 174.70090 1324 ft 100 kts 39°
2026-04-11 12:00 -36.56464 174.70263 1414 ft 97 kts 41°
2026-04-11 12:00 -36.55835 174.70482 1530 ft 93 kts 44°
2026-04-11 12:01 -36.55204 174.70694 1664 ft 96 kts 41°
2026-04-11 12:01 -36.54590 174.70864 1858 ft 91 kts 42°
2026-04-11 12:01 -36.53991 174.71041 1884 ft 88 kts 44°
2026-04-11 12:01 -36.53399 174.71222 1881 ft 86 kts 47°
2026-04-11 12:02 -36.52779 174.71395 1877 ft 94 kts 43°
2026-04-11 12:02 -36.52132 174.71569 1881 ft 99 kts 38°
2026-04-11 12:02 -36.51339 174.71537 1883 ft 122 kts 20°
2026-04-11 12:02 -36.50498 174.71421 1884 ft 120 kts 22°
2026-04-11 12:03 -36.49662 174.71335 1892 ft 121 kts 22°
2026-04-11 12:03 -36.48811 174.71218 1873 ft 121 kts 20°
2026-04-11 12:03 -36.47997 174.71109 1862 ft 112 kts 19°
2026-04-11 12:03 -36.47256 174.71007 1869 ft 105 kts 21°
2026-04-11 12:04 -36.46502 174.70901 1876 ft 113 kts 20°
2026-04-11 12:04 -36.45707 174.70805 1880 ft 116 kts 20°
2026-04-11 12:04 -36.44893 174.70698 1884 ft 118 kts 19°
2026-04-11 12:04 -36.44078 174.70603 1895 ft 119 kts 21°
2026-04-11 12:05 -36.43250 174.70492 1857 ft 119 kts 20°
2026-04-11 12:05 -36.42448 174.70367 1859 ft 113 kts 20°
2026-04-11 12:05 -36.41663 174.70258 1871 ft 119 kts 19°
2026-04-11 12:05 -36.40832 174.70163 1856 ft 118 kts 21°
2026-04-11 12:06 -36.40010 174.70082 1866 ft 119 kts 19°
2026-04-11 12:06 -36.39185 174.69995 1872 ft 119 kts 21°
2026-04-11 12:06 -36.38354 174.69880 1909 ft 121 kts 20°
2026-04-11 12:06 -36.37520 174.69767 1874 ft 118 kts 20°
2026-04-11 12:07 -36.36706 174.69652 1864 ft 116 kts 20°
2026-04-11 12:07 -36.35929 174.69523 1855 ft 108 kts 20°
2026-04-11 12:07 -36.35179 174.69405 1870 ft 113 kts 20°
2026-04-11 12:07 -36.34378 174.69314 1868 ft 119 kts 20°
2026-04-11 12:08 -36.33688 174.69240 1870 ft 123 kts 21°
2026-04-11 12:08 -36.32819 174.69153 1887 ft 122 kts 20°
2026-04-11 12:08 -36.32042 174.69042 2234 ft 104 kts 22°
2026-04-11 12:08 -36.31283 174.68812 2342 ft 118 kts 16°
2026-04-11 12:09 -36.30471 174.68602 2353 ft 119 kts 18°
2026-04-11 12:09 -36.29661 174.68427 2357 ft 118 kts 18°
2026-04-11 12:09 -36.28855 174.68219 2363 ft 121 kts 16°
2026-04-11 12:09 -36.28002 174.68035 2360 ft 126 kts 18°
2026-04-11 12:10 -36.27135 174.67852 2313 ft 121 kts 11°
2026-04-11 12:10 -36.26350 174.67810 2352 ft 116 kts 22°
2026-04-11 12:10 -36.25596 174.67667 2349 ft 129 kts 12°
2026-04-11 12:10 -36.24725 174.67499 2338 ft 123 kts 17°
2026-04-11 12:11 -36.23888 174.67347 2347 ft 121 kts 18°
2026-04-11 12:11 -36.23063 174.67162 2333 ft 120 kts 17°
2026-04-11 12:11 -36.22253 174.66953 2314 ft 118 kts 15°
2026-04-11 12:11 -36.21488 174.66754 2269 ft 123 kts 21°
2026-04-11 12:12 -36.20721 174.66558 2430 ft 117 kts 20°
2026-04-11 12:12 -36.19882 174.66406 2348 ft 126 kts 14°
2026-04-11 12:12 -36.19026 174.66286 2344 ft 124 kts 18°
2026-04-11 12:12 -36.18166 174.66100 2336 ft 132 kts
2026-04-11 12:13 -36.17287 174.65712 2328 ft 133 kts
2026-04-11 12:13 -36.16416 174.65323 2328 ft 133 kts
2026-04-11 12:13 -36.15539 174.64936 2325 ft 135 kts
2026-04-11 12:13 -36.14664 174.64540 2325 ft 133 kts
2026-04-11 12:14 -36.13811 174.64182 2326 ft 130 kts
2026-04-11 12:14 -36.12951 174.63814 2330 ft 128 kts
2026-04-11 12:14 -36.12108 174.63447 2323 ft 128 kts
2026-04-11 12:14 -36.11271 174.63073 2320 ft 128 kts
2026-04-11 12:15 -36.10435 174.62660 2320 ft 133 kts 359°
2026-04-11 12:15 -36.09592 174.62186 2327 ft 134 kts
2026-04-11 12:15 -36.08732 174.61714 2328 ft 136 kts
2026-04-11 12:15 -36.07860 174.61241 2328 ft 137 kts 360°
2026-04-11 12:16 -36.06985 174.60769 2322 ft 137 kts
2026-04-11 12:16 -36.06119 174.60290 2319 ft 137 kts
2026-04-11 12:16 -36.05257 174.59792 2316 ft 136 kts 360°
2026-04-11 12:16 -36.04401 174.59293 2318 ft 136 kts 359°
2026-04-11 12:17 -36.03834 174.58976 2324 ft 135 kts
2026-04-11 12:17 -36.02969 174.58487 2320 ft 138 kts 360°
2026-04-11 12:17 -36.01812 174.57824 2319 ft 139 kts 359°
2026-04-11 12:17 -36.00931 174.57346 2321 ft 138 kts
2026-04-11 12:18 -36.00051 174.56868 2316 ft 138 kts 360°
2026-04-11 12:18 -35.99178 174.56374 2314 ft 138 kts 359°
2026-04-11 12:18 -35.97735 174.55579 2315 ft 135 kts
2026-04-11 12:19 -35.96887 174.55088 2319 ft 135 kts 360°
2026-04-11 12:19 -35.96035 174.54598 2329 ft 134 kts 360°
2026-04-11 12:19 -35.95184 174.54131 2353 ft 133 kts
2026-04-11 12:19 -35.94383 174.53658 2492 ft 126 kts
2026-04-11 12:20 -35.93603 174.53173 2562 ft 125 kts 359°
2026-04-11 12:20 -35.92832 174.52697 2619 ft 123 kts 360°
2026-04-11 12:20 -35.92068 174.52221 2692 ft 123 kts 360°
2026-04-11 12:20 -35.91309 174.51743 2707 ft 123 kts
2026-04-11 12:21 -35.90546 174.51251 2779 ft 123 kts
2026-04-11 12:21 -35.89784 174.50756 2801 ft 128 kts
2026-04-11 12:21 -35.88963 174.50244 2807 ft 132 kts
2026-04-11 12:21 -35.88146 174.49741 2812 ft 133 kts
2026-04-11 12:22 -35.87316 174.49233 2814 ft 134 kts
2026-04-11 12:22 -35.86468 174.48733 2813 ft 136 kts 360°
2026-04-11 12:22 -35.85606 174.48254 2816 ft 136 kts
2026-04-11 12:22 -35.84744 174.47774 2812 ft 137 kts 358°
2026-04-11 12:23 -35.83900 174.47120 2805 ft 145 kts 348°
2026-04-11 12:23 -35.83058 174.46441 2801 ft 145 kts 349°
2026-04-11 12:23 -35.82227 174.45738 2794 ft 145 kts 348°
2026-04-11 12:23 -35.81390 174.45011 2793 ft 146 kts 348°
2026-04-11 12:24 -35.80565 174.44304 2797 ft 147 kts 348°
2026-04-11 12:24 -35.79709 174.43583 2796 ft 148 kts 348°
2026-04-11 12:24 -35.78872 174.42845 2775 ft 150 kts 346°
2026-04-11 12:24 -35.78080 174.42039 2804 ft 145 kts 347°
2026-04-11 12:25 -35.77237 174.41330 2800 ft 147 kts 346°
2026-04-11 12:25 -35.76404 174.40585 2449 ft 164 kts 316°
2026-04-11 12:25 -35.75634 174.40057 2544 ft 125 kts
2026-04-11 12:25 -35.74870 174.39284 2073 ft 162 kts 341°
2026-04-11 12:26 -35.73998 174.38477 2027 ft 125 kts 19°
2026-04-11 12:26 -35.73250 174.38052 1996 ft 154 kts 348°
2026-04-11 12:26 -35.72850 174.37421 1069 ft 142 kts 203°
2026-04-11 12:26 -35.72991 174.36219 1287 ft 175 kts 300°
2026-04-11 12:27 -35.72546 174.34954 1477 ft 168 kts 292°
2026-04-11 12:27 -35.72425 174.33642 1750 ft 140 kts 238°
2026-04-11 12:27 -35.72706 174.33304 1857 ft 51 kts 56°
2026-04-11 12:27 -35.72149 174.33082 1920 ft 116 kts 30°
2026-04-11 12:28 -35.71913 174.33103 640 ft 8 kts 56°
2026-04-11 12:28 -35.72802 174.33152 665 ft 125 kts 194°
2026-04-11 12:28 -35.73271 174.32293 1015 ft 141 kts 261°
2026-04-11 12:29 -35.72908 174.31089 1026 ft 157 kts 309°
2026-04-11 12:29 -35.72376 174.30123 1332 ft 78 kts 62°
2026-04-11 12:29 -35.72070 174.30275 1082 ft 124 kts 62°
2026-04-11 12:29 -35.71588 174.30597 1590 ft 11 kts 116°
2026-04-11 12:30 -35.71708 174.30950 1201 ft 124 kts 211°
2026-04-11 12:30 -35.72414 174.30513 1421 ft 106 kts 200°
2026-04-11 12:30 -35.73195 174.30472 1338 ft 122 kts 166°
2026-04-11 12:30 -35.73821 174.31098 1439 ft 119 kts 113°
2026-04-11 12:31 -35.73653 174.32075 1347 ft 128 kts 42°
2026-04-11 12:31 -35.72844 174.32190 1438 ft 117 kts 340°
2026-04-11 12:31 -35.72098 174.32131 1714 ft 104 kts 359°
2026-04-11 12:31 -35.71374 174.32062 1857 ft 105 kts 344°
2026-04-11 12:32 -35.70660 174.31889 2035 ft 105 kts 349°
2026-04-11 12:32 -35.69948 174.31736 2186 ft 105 kts 349°
2026-04-11 12:32 -35.69226 174.31581 2325 ft 105 kts 349°
2026-04-11 12:32 -35.68501 174.31427 2422 ft 106 kts 349°
2026-04-11 12:33 -35.67779 174.31270 2560 ft 106 kts 349°
2026-04-11 12:33 -35.67051 174.31115 2712 ft 106 kts 349°
2026-04-11 12:33 -35.66321 174.30958 2799 ft 107 kts 349°
2026-04-11 12:33 -35.65592 174.30801 2893 ft 107 kts 349°
2026-04-11 12:34 -35.64858 174.30644 2991 ft 108 kts 350°
2026-04-11 12:34 -35.64086 174.30478 2998 ft 115 kts 350°
2026-04-11 12:34 -35.63281 174.30305 3004 ft 119 kts 349°
2026-04-11 12:34 -35.63159 174.30278 3005 ft 119 kts 349°
2026-04-11 12:35 -35.62380 174.30109 3006 ft 120 kts 349°
2026-04-11 12:35 -35.61626 174.29711 2996 ft 120 kts 319°
2026-04-11 12:35 -35.60990 174.29047 3000 ft 120 kts 320°
2026-04-11 12:36 -35.60344 174.28376 3004 ft 123 kts 320°
2026-04-11 12:36 -35.59696 174.27704 3001 ft 121 kts 320°
2026-04-11 12:36 -35.59052 174.27037 2999 ft 122 kts 320°
2026-04-11 12:36 -35.58407 174.26367 3000 ft 122 kts 320°
2026-04-11 12:37 -35.57763 174.25699 3002 ft 121 kts 320°
2026-04-11 12:37 -35.57124 174.25034 2998 ft 120 kts 320°
2026-04-11 12:37 -35.56487 174.24371 2998 ft 120 kts 320°
2026-04-11 12:37 -35.55851 174.23710 2997 ft 120 kts 320°
2026-04-11 12:38 -35.55230 174.23066 2994 ft 120 kts 320°
2026-04-11 12:38 -35.54592 174.22404 3002 ft 122 kts 320°
2026-04-11 12:38 -35.53940 174.21727 2999 ft 123 kts 320°
2026-04-11 12:38 -35.53510 174.21280 2999 ft 122 kts 320°
2026-04-11 12:39 -35.52868 174.20613 2997 ft 120 kts 320°
2026-04-11 12:39 -35.52244 174.19964 2995 ft 121 kts 320°
2026-04-11 12:39 -35.51600 174.19295 3004 ft 123 kts 320°
2026-04-11 12:39 -35.50949 174.18621 2998 ft 122 kts 320°
2026-04-11 12:40 -35.50306 174.17953 2999 ft 121 kts 320°
2026-04-11 12:40 -35.49659 174.17281 2998 ft 122 kts 320°
2026-04-11 12:40 -35.49012 174.16607 2996 ft 122 kts 320°
2026-04-11 12:40 -35.48159 174.15724 2996 ft 121 kts 321°
2026-04-11 12:41 -35.47704 174.15307 2997 ft 121 kts 323°
2026-04-11 12:41 -35.46808 174.14501 2996 ft 121 kts 323°
2026-04-11 12:41 -35.46351 174.14089 2997 ft 121 kts 323°
2026-04-11 12:41 -35.45672 174.13479 2996 ft 121 kts 323°
2026-04-11 12:42 -35.44996 174.12872 2996 ft 120 kts 323°
2026-04-11 12:42 -35.44320 174.12265 2996 ft 120 kts 323°
2026-04-11 12:42 -35.43644 174.11657 2995 ft 120 kts 323°
2026-04-11 12:43 -35.42289 174.10440 2995 ft 122 kts 323°
2026-04-11 12:43 -35.41608 174.09828 2995 ft 121 kts 323°
2026-04-11 12:43 -35.40930 174.09217 2994 ft 121 kts 323°
2026-04-11 12:43 -35.40263 174.08617 2994 ft 121 kts 323°
2026-04-11 12:44 -35.39580 174.08001 2993 ft 120 kts 323°
2026-04-11 12:44 -35.38904 174.07393 2993 ft 120 kts 323°
2026-04-11 12:44 -35.38227 174.06784 2994 ft 122 kts 324°
2026-04-11 12:44 -35.37551 174.06172 2996 ft 123 kts 323°
2026-04-11 12:45 -35.36863 174.05551 2996 ft 122 kts 323°
2026-04-11 12:45 -35.36182 174.04937 2994 ft 121 kts 323°
2026-04-11 12:45 -35.35504 174.04326 3002 ft 121 kts 323°
2026-04-11 12:45 -35.34812 174.03703 2993 ft 121 kts 323°
2026-04-11 12:46 -35.34144 174.03101 2998 ft 121 kts 323°
2026-04-11 12:46 -35.33455 174.02482 2998 ft 122 kts 323°
2026-04-11 12:46 -35.32777 174.01870 2995 ft 122 kts 323°
2026-04-11 12:46 -35.32091 174.01251 2994 ft 122 kts 323°
2026-04-11 12:47 -35.31397 174.00624 2993 ft 122 kts 323°
2026-04-11 12:47 -35.30725 174.00018 2991 ft 121 kts 323°
2026-04-11 12:47 -35.30049 173.99407 2990 ft 121 kts 323°
2026-04-11 12:47 -35.29361 173.98787 2996 ft 121 kts 323°
2026-04-11 12:48 -35.28691 173.98184 2994 ft 121 kts 323°
2026-04-11 12:48 -35.28013 173.97571 2994 ft 121 kts 323°
2026-04-11 12:48 -35.27336 173.96961 2992 ft 120 kts 323°
2026-04-11 12:48 -35.26662 173.96353 2991 ft 120 kts 323°
2026-04-11 12:49 -35.25987 173.95744 2991 ft 121 kts 323°
2026-04-11 12:49 -35.25320 173.95142 2988 ft 118 kts 323°
2026-04-11 12:49 -35.24669 173.94555 2990 ft 115 kts 323°
2026-04-11 12:49 -35.24042 173.93997 2766 ft 112 kts 324°
2026-04-11 12:50 -35.23394 173.93415 2499 ft 115 kts 323°
2026-04-11 12:50 -35.22755 173.92845 2263 ft 114 kts 323°
2026-04-11 12:50 -35.22118 173.92274 2045 ft 114 kts 323°
2026-04-11 12:50 -35.21484 173.91704 1850 ft 113 kts 322°
2026-04-11 12:51 -35.20925 173.91043 1670 ft 104 kts 300°
2026-04-11 12:51 -35.21085 173.90438 1664 ft 105 kts 208°
2026-04-11 12:51 -35.21875 173.90193 1315 ft 117 kts 188°
2026-04-11 12:51 -35.22641 173.90242 1082 ft 103 kts 168°
2026-04-11 12:52 -35.23311 173.90470 941 ft 93 kts 167°
2026-04-11 12:52 -35.23916 173.90648 774 ft 86 kts 168°
2026-04-11 12:52 -35.24461 173.90821 690 ft 79 kts 167°
2026-04-11 12:52 -35.24983 173.90972 577 ft 76 kts 168°
2026-04-11 12:53 -35.25481 173.91128 504 ft 70 kts 166°
2026-04-11 12:53 -35.25838 173.91238 491 ft 29 kts 167°
2026-04-11 12:53 -35.26016 173.91290 486 ft 24 kts 166°
2026-04-11 12:53 -35.26169 173.91337 480 ft 19 kts 167°
2026-04-11 12:54 -35.26242 173.91351 480 ft 7 kts 204°
2026-04-11 12:54 -35.26262 173.91299 481 ft 6 kts 257°
2026-04-11 12:54 -35.26271 173.91262 479 ft 4 kts 256°
2026-04-11 12:54 -35.26277 173.91229 483 ft 0 kts 268°